{"data":{"norad_id":46055,"epoch":"2026-05-25T04:34:22.395072Z","epoch_age_seconds":65426,"freshness":"FRESH","line1":"1 46055U 20055AE  26145.19053698  .00000713  00000+0  34746-4 0  9999","line2":"2 46055  53.1598 118.2267 0001068  85.5676 274.5447 15.31697810320797","mean_motion":15.3169781,"eccentricity":0.0001068,"inclination_deg":53.1598,"raan_deg":118.2267,"arg_perigee_deg":85.5676,"mean_anomaly_deg":274.5447,"bstar":3.4746e-5,"rev_number":32079,"period_min":94.013322379824,"perigee_km":470.01506274916,"apogee_km":471.47798426978,"semimajor_km":6848.8835235095,"source":"CELESTRAK","updated_at":"2026-05-25T13:38:16.462144Z"}}